Terminal Aerodrome Forecast
Issued by NWS Binghamton, NY

Home | Current Version | Previous Version | Text Only | Print | Product List | Glossary On
Versions: 1 2 3 4 5 6 7 8 9 10 11 12 13 14 15 16 17 18 19 20 21
000
FTUS41 KBGM 232300
TAFAVP
TAF
KAVP 232330Z 2400/2424 32006KT P6SM -SHRA BKN050
     FM240200 33004KT P6SM OVC025
     FM240600 34004KT P6SM OVC035
     FM241500 35009KT P6SM BKN040=

USA.gov is the U.S. government's official web portal to all federal, state and local government web resources and services.